Time,TemperatureF,DewpointF,PressureIn,WindDirection,WindDirectionDegrees,WindSpeedMPH,WindSpeedGustMPH,Humidity,HourlyPrecipIn,Conditions,Clouds,dailyrainin,SoftwareType,DateUTC
2013-03-10 00:00:00,44.8,27.3,30.27,WSW,244,0.0,0.0,50,0.00,,,0.00,meteohub,2013-03-10 05:00:00,
2013-03-10 00:05:00,44.6,26.6,30.27,WSW,244,0.0,0.0,49,0.00,,,0.00,meteohub,2013-03-10 05:05:00,
2013-03-10 00:10:00,44.4,27.0,30.27,WSW,244,0.0,0.0,50,0.00,,,0.00,meteohub,2013-03-10 05:10:00,
2013-03-10 00:15:00,44.1,26.1,30.27,WSW,244,0.0,0.0,49,0.00,,,0.00,meteohub,2013-03-10 05:15:00,
2013-03-10 00:21:00,43.7,25.7,30.27,WSW,244,0.0,0.0,49,0.00,,,0.00,meteohub,2013-03-10 05:21:00,
2013-03-10 00:26:00,43.5,26.1,30.27,WSW,244,0.0,0.0,50,0.00,,,0.00,meteohub,2013-03-10 05:26:00,
2013-03-10 00:31:00,43.3,25.9,30.27,WSW,244,0.0,0.0,50,0.00,,,0.00,meteohub,2013-03-10 05:31:00,
2013-03-10 00:36:00,43.2,25.7,30.27,WSW,244,0.0,0.0,50,0.00,,,0.00,meteohub,2013-03-10 05:36:00,
2013-03-10 00:41:00,42.8,25.5,30.27,WSW,244,0.0,0.0,50,0.00,,,0.00,meteohub,2013-03-10 05:41:00,
2013-03-10 00:46:00,42.8,25.9,30.27,WSW,244,0.0,0.0,51,0.00,,,0.00,meteohub,2013-03-10 05:46:00,
2013-03-10 00:51:00,42.8,25.9,30.27,WSW,244,0.0,0.0,51,0.00,,,0.00,meteohub,2013-03-10 05:51:00,
2013-03-10 00:56:00,42.4,25.5,30.27,WSW,244,0.0,0.0,51,0.00,,,0.00,meteohub,2013-03-10 05:56:00,
2013-03-10 01:01:00,42.3,25.3,30.27,WSW,244,0.0,0.0,51,0.00,,,0.00,meteohub,2013-03-10 06:01:00,
2013-03-10 01:06:00,42.3,25.3,30.27,WSW,244,0.0,0.0,51,0.00,,,0.00,meteohub,2013-03-10 06:06:00,
2013-03-10 01:11:00,42.3,25.3,30.27,WSW,244,0.0,0.0,51,0.00,,,0.00,meteohub,2013-03-10 06:11:00,
2013-03-10 01:16:00,42.1,25.7,30.30,WSW,244,0.0,0.0,52,0.00,,,0.00,meteohub,2013-03-10 06:16:00,
2013-03-10 01:21:00,42.1,25.7,30.30,WSW,244,0.0,0.0,52,0.00,,,0.00,meteohub,2013-03-10 06:21:00,
2013-03-10 01:26:00,42.1,26.2,30.30,WSW,244,0.0,0.0,53,0.00,,,0.00,meteohub,2013-03-10 06:26:00,
2013-03-10 01:31:00,41.7,25.9,30.27,WSW,244,0.0,0.0,53,0.00,,,0.00,meteohub,2013-03-10 06:31:00,
2013-03-10 01:36:00,41.7,25.9,30.27,WSW,244,0.0,0.0,53,0.00,,,0.00,meteohub,2013-03-10 06:36:00,
2013-03-10 01:41:00,41.4,25.5,30.27,WSW,244,0.0,0.0,53,0.00,,,0.00,meteohub,2013-03-10 06:41:00,
2013-03-10 01:46:00,41.2,25.3,30.27,WSW,244,0.0,0.0,53,0.00,,,0.00,meteohub,2013-03-10 06:46:00,
2013-03-10 01:51:00,41.2,25.9,30.27,WSW,244,0.0,0.0,54,0.00,,,0.00,meteohub,2013-03-10 06:51:00,
2013-03-10 01:56:00,41.0,25.7,30.27,WSW,244,0.0,0.0,54,0.00,,,0.00,meteohub,2013-03-10 06:56:00,
2013-03-10 03:01:00,40.8,25.9,30.27,WSW,244,0.0,0.0,55,0.00,,,0.00,meteohub,2013-03-10 07:01:00,
2013-03-10 03:06:00,40.8,25.9,30.27,WSW,244,0.0,0.0,55,0.00,,,0.00,meteohub,2013-03-10 07:06:00,
2013-03-10 03:11:00,40.6,25.7,30.27,WSW,244,0.0,0.0,55,0.00,,,0.00,meteohub,2013-03-10 07:11:00,
2013-03-10 03:16:00,40.5,25.5,30.27,WSW,244,0.0,0.0,55,0.00,,,0.00,meteohub,2013-03-10 07:16:00,
2013-03-10 03:21:00,40.3,25.3,30.27,WSW,244,0.0,0.0,55,0.00,,,0.00,meteohub,2013-03-10 07:21:00,
2013-03-10 03:26:00,40.1,25.2,30.27,WSW,244,0.0,0.0,55,0.00,,,0.00,meteohub,2013-03-10 07:26:00,
2013-03-10 03:31:00,39.9,25.0,30.27,WSW,244,0.0,0.0,55,0.00,,,0.00,meteohub,2013-03-10 07:31:00,
2013-03-10 03:36:00,39.9,25.0,30.27,WSW,244,0.0,0.0,55,0.00,,,0.00,meteohub,2013-03-10 07:36:00,
2013-03-10 03:41:00,39.7,25.0,30.27,WSW,244,0.0,0.0,55,0.00,,,0.00,meteohub,2013-03-10 07:41:00,
2013-03-10 03:46:00,39.6,24.8,30.27,WSW,244,0.0,0.0,55,0.00,,,0.00,meteohub,2013-03-10 07:46:00,
2013-03-10 03:51:00,39.6,24.8,30.27,WSW,244,0.0,0.0,55,0.00,,,0.00,meteohub,2013-03-10 07:51:00,
2013-03-10 03:56:00,39.4,24.6,30.27,WSW,244,0.0,0.0,55,0.00,,,0.00,meteohub,2013-03-10 07:56:00,
2013-03-10 04:01:00,39.4,25.0,30.27,WSW,244,0.0,0.0,56,0.00,,,0.00,meteohub,2013-03-10 08:01:00,
2013-03-10 04:06:00,39.2,24.8,30.27,WSW,244,0.0,0.0,56,0.00,,,0.00,meteohub,2013-03-10 08:06:00,
2013-03-10 04:12:00,39.2,24.8,30.27,WSW,244,0.0,0.0,56,0.00,,,0.00,meteohub,2013-03-10 08:12:00,
2013-03-10 04:17:00,39.2,24.8,30.27,WSW,244,0.0,0.0,56,0.00,,,0.00,meteohub,2013-03-10 08:17:00,
2013-03-10 04:22:00,39.2,24.8,30.27,WSW,244,0.0,0.0,56,0.00,,,0.00,meteohub,2013-03-10 08:22:00,
2013-03-10 04:27:00,39.2,25.2,30.27,WSW,244,0.0,0.0,57,0.00,,,0.00,meteohub,2013-03-10 08:27:00,
2013-03-10 04:32:00,39.2,25.2,30.27,WSW,244,0.0,0.0,57,0.00,,,0.00,meteohub,2013-03-10 08:32:00,
2013-03-10 04:37:00,39.2,25.7,30.27,WSW,244,0.0,0.0,58,0.00,,,0.00,meteohub,2013-03-10 08:37:00,
2013-03-10 04:42:00,39.2,26.1,30.27,WSW,244,0.0,0.0,59,0.00,,,0.00,meteohub,2013-03-10 08:42:00,
2013-03-10 04:47:00,39.4,26.2,30.27,WSW,244,0.0,0.0,59,0.00,,,0.00,meteohub,2013-03-10 08:47:00,
2013-03-10 04:52:00,39.4,26.6,30.27,WSW,244,0.0,0.0,60,0.00,,,0.00,meteohub,2013-03-10 08:52:00,
2013-03-10 04:57:00,39.4,26.6,30.27,WSW,244,0.0,0.0,60,0.00,,,0.00,meteohub,2013-03-10 08:57:00,
2013-03-10 05:02:00,39.6,26.8,30.27,WSW,244,0.0,0.0,60,0.00,,,0.00,meteohub,2013-03-10 09:02:00,
2013-03-10 05:07:00,39.7,27.0,30.27,WSW,244,0.0,0.0,60,0.00,,,0.00,meteohub,2013-03-10 09:07:00,
2013-03-10 05:12:00,39.7,27.3,30.27,WSW,244,0.0,0.0,61,0.00,,,0.00,meteohub,2013-03-10 09:12:00,
2013-03-10 05:17:00,39.9,27.5,30.27,WSW,244,0.0,0.0,61,0.00,,,0.00,meteohub,2013-03-10 09:17:00,
2013-03-10 05:22:00,39.9,27.1,30.27,WSW,244,0.0,0.0,60,0.00,,,0.00,meteohub,2013-03-10 09:22:00,
2013-03-10 05:27:00,39.9,27.1,30.27,WSW,244,0.0,0.0,60,0.00,,,0.00,meteohub,2013-03-10 09:27:00,
2013-03-10 05:32:00,39.9,27.1,30.27,WSW,244,0.0,0.0,60,0.00,,,0.00,meteohub,2013-03-10 09:32:00,
2013-03-10 05:37:00,39.9,26.8,30.27,WSW,244,0.0,0.0,59,0.00,,,0.00,meteohub,2013-03-10 09:37:00,
2013-03-10 05:42:00,39.9,26.8,30.27,WSW,244,0.0,0.0,59,0.00,,,0.00,meteohub,2013-03-10 09:42:00,
2013-03-10 05:47:00,39.9,26.8,30.27,WSW,244,0.0,0.0,59,0.00,,,0.00,meteohub,2013-03-10 09:47:00,
2013-03-10 05:52:00,40.1,27.0,30.27,WSW,244,0.0,0.0,59,0.00,,,0.00,meteohub,2013-03-10 09:52:00,
2013-03-10 05:57:00,40.1,26.6,30.27,WSW,244,0.0,0.0,58,0.00,,,0.00,meteohub,2013-03-10 09:57:00,
2013-03-10 06:02:00,40.3,27.1,30.27,WSW,244,0.0,0.0,59,0.00,,,0.00,meteohub,2013-03-10 10:02:00,
2013-03-10 06:07:00,40.3,27.1,30.27,WSW,244,0.0,0.0,59,0.00,,,0.00,meteohub,2013-03-10 10:07:00,
2013-03-10 06:12:00,40.5,27.3,30.27,WSW,244,0.0,0.0,59,0.00,,,0.00,meteohub,2013-03-10 10:12:00,
2013-03-10 06:17:00,40.5,27.3,30.27,WSW,244,0.0,0.0,59,0.00,,,0.00,meteohub,2013-03-10 10:17:00,
2013-03-10 06:22:00,40.5,27.3,30.27,WSW,244,0.0,0.0,59,0.00,,,0.00,meteohub,2013-03-10 10:22:00,
2013-03-10 06:27:00,40.5,27.7,30.27,WSW,244,0.0,0.0,60,0.00,,,0.00,meteohub,2013-03-10 10:27:00,
2013-03-10 06:32:00,40.5,27.7,30.27,WSW,244,0.0,0.0,60,0.00,,,0.00,meteohub,2013-03-10 10:32:00,
2013-03-10 06:37:00,40.5,27.7,30.27,WSW,244,0.0,0.0,60,0.00,,,0.00,meteohub,2013-03-10 10:37:00,
2013-03-10 06:42:00,40.8,28.0,30.27,WSW,244,0.0,0.0,60,0.00,,,0.00,meteohub,2013-03-10 10:42:00,
2013-03-10 06:47:00,41.0,28.2,30.27,WSW,244,0.0,0.0,60,0.00,,,0.00,meteohub,2013-03-10 10:47:00,
2013-03-10 06:52:00,41.0,28.2,30.27,WSW,244,0.0,0.0,60,0.00,,,0.00,meteohub,2013-03-10 10:52:00,
2013-03-10 06:57:00,41.0,28.2,30.27,WSW,244,0.0,0.0,60,0.00,,,0.00,meteohub,2013-03-10 10:57:00,
2013-03-10 07:02:00,41.0,28.2,30.27,WSW,244,0.0,0.0,60,0.00,,,0.00,meteohub,2013-03-10 11:02:00,
2013-03-10 07:07:00,41.0,28.6,30.27,WSW,244,0.0,0.0,61,0.00,,,0.00,meteohub,2013-03-10 11:07:00,
2013-03-10 07:12:00,41.0,28.6,30.27,WSW,244,0.0,0.0,61,0.00,,,0.00,meteohub,2013-03-10 11:12:00,
2013-03-10 07:17:00,41.0,28.6,30.30,WSW,244,0.0,0.0,61,0.00,,,0.00,meteohub,2013-03-10 11:17:00,
2013-03-10 07:22:00,41.0,28.6,30.30,WSW,244,0.0,0.0,61,0.00,,,0.00,meteohub,2013-03-10 11:22:00,
2013-03-10 07:27:00,41.0,28.6,30.30,WSW,244,0.0,0.0,61,0.00,,,0.00,meteohub,2013-03-10 11:27:00,
2013-03-10 07:32:00,40.8,28.4,30.30,WSW,244,0.0,0.0,61,0.00,,,0.00,meteohub,2013-03-10 11:32:00,
2013-03-10 07:37:00,40.6,28.2,30.30,WSW,244,0.0,0.0,61,0.00,,,0.00,meteohub,2013-03-10 11:37:00,
2013-03-10 07:42:00,40.6,28.2,30.30,WSW,244,0.0,0.0,61,0.00,,,0.00,meteohub,2013-03-10 11:42:00,
2013-03-10 07:47:00,40.5,27.7,30.30,WSW,244,0.0,0.0,60,0.00,,,0.00,meteohub,2013-03-10 11:47:00,
2013-03-10 07:52:00,40.3,27.9,30.30,WSW,244,0.0,0.0,61,0.00,,,0.00,meteohub,2013-03-10 11:52:00,
2013-03-10 07:57:00,40.3,27.9,30.30,WSW,244,0.0,0.0,61,0.00,,,0.00,meteohub,2013-03-10 11:57:00,
2013-03-10 08:02:00,40.1,27.7,30.30,WSW,244,0.0,0.0,61,0.00,,,0.00,meteohub,2013-03-10 12:02:00,
2013-03-10 08:07:00,40.1,27.7,30.30,WSW,244,0.0,0.0,61,0.00,,,0.00,meteohub,2013-03-10 12:07:00,
2013-03-10 08:12:00,40.3,27.9,30.30,WSW,244,0.0,0.0,61,0.00,,,0.00,meteohub,2013-03-10 12:12:00,
2013-03-10 08:17:00,40.5,28.4,30.30,WSW,244,0.0,0.0,62,0.00,,,0.00,meteohub,2013-03-10 12:17:00,
2013-03-10 08:22:00,40.8,28.8,30.30,WSW,244,0.0,0.0,62,0.00,,,0.00,meteohub,2013-03-10 12:22:00,
2013-03-10 08:27:00,41.0,28.9,30.30,WSW,244,0.0,0.0,62,0.00,,,0.00,meteohub,2013-03-10 12:27:00,
2013-03-10 08:32:00,41.5,29.1,30.30,WSW,239,0.0,0.0,61,0.00,,,0.00,meteohub,2013-03-10 12:32:00,
2013-03-10 08:37:00,41.7,29.3,30.30,WSW,240,0.0,0.0,61,0.00,,,0.00,meteohub,2013-03-10 12:37:00,
2013-03-10 08:42:00,42.1,29.7,30.30,WSW,239,0.0,0.0,61,0.00,,,0.00,meteohub,2013-03-10 12:42:00,
2013-03-10 08:47:00,42.4,29.5,30.30,WSW,239,0.0,0.0,60,0.00,,,0.00,meteohub,2013-03-10 12:47:00,
2013-03-10 08:52:00,43.0,30.0,30.30,WSW,239,0.0,0.0,60,0.00,,,0.00,meteohub,2013-03-10 12:52:00,
2013-03-10 08:57:00,43.3,30.0,30.30,WSW,239,0.0,0.0,59,0.00,,,0.00,meteohub,2013-03-10 12:57:00,
2013-03-10 09:02:00,43.3,30.0,30.32,WSW,239,0.0,0.0,59,0.00,,,0.00,meteohub,2013-03-10 13:02:00,
2013-03-10 09:07:00,43.3,30.0,30.32,WSW,239,0.0,0.0,59,0.00,,,0.00,meteohub,2013-03-10 13:07:00,
2013-03-10 09:12:00,43.5,30.2,30.32,NNW,341,0.0,0.0,59,0.00,,,0.00,meteohub,2013-03-10 13:12:00,
2013-03-10 09:17:00,43.7,30.4,30.32,NNW,341,0.0,0.0,59,0.00,,,0.00,meteohub,2013-03-10 13:17:00,
2013-03-10 09:22:00,43.9,30.9,30.32,NNW,341,0.0,0.0,60,0.00,,,0.00,meteohub,2013-03-10 13:22:00,
2013-03-10 09:27:00,44.1,31.1,30.32,NNW,341,0.0,0.0,60,0.00,,,0.00,meteohub,2013-03-10 13:27:00,
2013-03-10 09:32:00,44.6,31.6,30.32,NNW,341,0.0,0.0,60,0.00,,,0.00,meteohub,2013-03-10 13:32:00,
2013-03-10 09:37:00,45.3,31.8,30.32,NNW,341,0.0,0.0,59,0.00,,,0.00,meteohub,2013-03-10 13:37:00,
2013-03-10 09:42:00,46.6,32.5,30.32,NNW,341,0.0,0.0,58,0.00,,,0.00,meteohub,2013-03-10 13:42:00,
2013-03-10 09:47:00,50.7,34.2,30.32,NNW,341,0.0,0.0,53,0.00,,,0.00,meteohub,2013-03-10 13:47:00,
2013-03-10 09:52:00,55.4,34.9,30.32,NNW,341,0.0,0.0,46,0.00,,,0.00,meteohub,2013-03-10 13:52:00,
2013-03-10 09:57:00,58.8,37.6,30.32,NNW,341,0.0,0.0,45,0.00,,,0.00,meteohub,2013-03-10 13:57:00,
2013-03-10 10:02:00,62.1,38.7,30.32,NNW,341,0.0,0.0,42,0.00,,,0.00,meteohub,2013-03-10 14:02:00,
2013-03-10 10:07:00,63.1,37.8,30.32,NNW,341,0.0,0.0,39,0.00,,,0.00,meteohub,2013-03-10 14:07:00,
2013-03-10 10:12:00,61.5,35.6,30.32,East,98,0.0,0.0,38,0.00,,,0.00,meteohub,2013-03-10 14:12:00,
2013-03-10 10:17:00,58.5,32.4,30.32,SW,234,2.0,3.0,37,0.00,,,0.00,meteohub,2013-03-10 14:17:00,
2013-03-10 10:22:00,56.8,30.2,30.32,SSW,197,0.0,3.0,36,0.00,,,0.00,meteohub,2013-03-10 14:22:00,
2013-03-10 10:28:00,56.5,29.8,30.32,SW,226,2.0,3.0,36,0.00,,,0.00,meteohub,2013-03-10 14:28:00,
2013-03-10 10:33:00,56.3,29.7,30.32,SSW,195,3.0,4.0,36,0.00,,,0.00,meteohub,2013-03-10 14:33:00,
2013-03-10 10:38:00,56.8,30.2,30.32,SSW,198,0.0,4.0,36,0.00,,,0.00,meteohub,2013-03-10 14:38:00,
2013-03-10 10:43:00,56.7,30.0,30.32,WSW,253,0.0,4.0,36,0.00,,,0.00,meteohub,2013-03-10 14:43:00,
2013-03-10 10:48:00,56.1,29.5,30.32,SW,223,2.0,5.0,36,0.00,,,0.00,meteohub,2013-03-10 14:48:00,
2013-03-10 10:53:00,56.3,28.9,30.32,SW,233,3.0,5.0,35,0.00,,,0.00,meteohub,2013-03-10 14:53:00,
2013-03-10 10:58:00,56.5,29.1,30.32,South,178,4.0,6.0,35,0.00,,,0.00,meteohub,2013-03-10 14:58:00,
2013-03-10 11:03:00,56.7,29.3,30.30,South,171,3.0,6.0,35,0.00,,,0.00,meteohub,2013-03-10 15:03:00,
2013-03-10 11:08:00,56.8,29.5,30.30,North,4,3.0,6.0,35,0.00,,,0.00,meteohub,2013-03-10 15:08:00,
2013-03-10 11:13:00,56.8,29.5,30.30,ENE,74,3.0,5.0,35,0.00,,,0.00,meteohub,2013-03-10 15:13:00,
2013-03-10 11:18:00,56.8,28.8,30.30,ENE,59,0.0,5.0,34,0.00,,,0.00,meteohub,2013-03-10 15:18:00,
2013-03-10 11:23:00,57.0,28.9,30.30,ENE,68,0.0,5.0,34,0.00,,,0.00,meteohub,2013-03-10 15:23:00,
2013-03-10 11:28:00,57.6,28.6,30.30,SSW,200,5.0,5.0,33,0.00,,,0.00,meteohub,2013-03-10 15:28:00,
2013-03-10 11:33:00,57.6,27.9,30.30,SE,140,4.0,5.0,32,0.00,,,0.00,meteohub,2013-03-10 15:33:00,
2013-03-10 11:38:00,57.9,28.2,30.30,SE,124,4.0,8.0,32,0.00,,,0.00,meteohub,2013-03-10 15:38:00,
2013-03-10 11:43:00,58.3,27.9,30.30,South,179,4.0,8.0,31,0.00,,,0.00,meteohub,2013-03-10 15:43:00,
2013-03-10 11:48:00,58.3,27.9,30.30,South,190,3.0,8.0,31,0.00,,,0.00,meteohub,2013-03-10 15:48:00,
2013-03-10 11:53:00,58.5,26.2,30.30,SW,236,5.0,6.0,29,0.00,,,0.00,meteohub,2013-03-10 15:53:00,
2013-03-10 11:58:00,58.6,26.4,30.30,North,0,0.0,8.0,29,0.00,,,0.00,meteohub,2013-03-10 15:58:00,
2013-03-10 12:03:00,58.5,26.2,30.30,SSW,210,4.0,8.0,29,0.00,,,0.00,meteohub,2013-03-10 16:03:00,
2013-03-10 12:08:00,59.2,27.0,30.30,SSW,193,6.0,8.0,29,0.00,,,0.00,meteohub,2013-03-10 16:08:00,
2013-03-10 12:13:00,59.2,26.1,30.30,SW,227,3.0,8.0,28,0.00,,,0.00,meteohub,2013-03-10 16:13:00,
2013-03-10 12:18:00,59.2,25.2,30.27,SSE,147,4.0,8.0,27,0.00,,,0.00,meteohub,2013-03-10 16:18:00,
2013-03-10 12:23:00,59.2,25.2,30.27,SSW,201,3.0,11.0,27,0.00,,,0.00,meteohub,2013-03-10 16:23:00,
2013-03-10 12:28:00,59.4,25.3,30.27,WSW,239,3.0,11.0,27,0.00,,,0.00,meteohub,2013-03-10 16:28:00,
2013-03-10 12:33:00,59.5,25.5,30.27,ESE,110,6.0,9.0,27,0.00,,,0.00,meteohub,2013-03-10 16:33:00,
2013-03-10 12:38:00,59.9,25.9,30.27,South,181,4.0,8.0,27,0.00,,,0.00,meteohub,2013-03-10 16:38:00,
2013-03-10 12:43:00,59.7,25.7,30.27,SSE,165,0.0,8.0,27,0.00,,,0.00,meteohub,2013-03-10 16:43:00,
2013-03-10 12:48:00,59.7,24.8,30.27,South,180,8.0,8.0,26,0.00,,,0.00,meteohub,2013-03-10 16:48:00,
2013-03-10 12:53:00,60.3,25.2,30.27,SW,216,5.0,8.0,26,0.00,,,0.00,meteohub,2013-03-10 16:53:00,
2013-03-10 12:58:00,60.6,25.5,30.27,WSW,244,4.0,8.0,26,0.00,,,0.00,meteohub,2013-03-10 16:58:00,
2013-03-10 13:03:00,60.6,25.5,30.27,South,169,5.0,8.0,26,0.00,,,0.00,meteohub,2013-03-10 17:03:00,
2013-03-10 13:08:00,60.3,25.2,30.27,West,273,3.0,8.0,26,0.00,,,0.00,meteohub,2013-03-10 17:08:00,
2013-03-10 13:14:00,60.6,25.5,30.27,SSE,166,6.0,8.0,26,0.00,,,0.00,meteohub,2013-03-10 17:14:00,
2013-03-10 13:19:00,60.6,24.6,30.27,SSE,149,0.0,8.0,25,0.00,,,0.00,meteohub,2013-03-10 17:19:00,
2013-03-10 13:24:00,61.0,25.0,30.27,SSW,212,4.0,8.0,25,0.00,,,0.00,meteohub,2013-03-10 17:24:00,
2013-03-10 13:29:00,60.8,24.8,30.27,NNW,339,0.0,8.0,25,0.00,,,0.00,meteohub,2013-03-10 17:29:00,
2013-03-10 13:34:00,60.6,24.6,30.27,SSE,156,0.0,8.0,25,0.00,,,0.00,meteohub,2013-03-10 17:34:00,
2013-03-10 13:39:00,61.0,25.0,30.27,SW,224,6.0,8.0,25,0.00,,,0.00,meteohub,2013-03-10 17:39:00,
2013-03-10 13:44:00,61.2,25.0,30.27,WSW,237,4.0,8.0,25,0.00,,,0.00,meteohub,2013-03-10 17:44:00,
2013-03-10 13:49:00,61.3,25.2,30.27,South,170,4.0,8.0,25,0.00,,,0.00,meteohub,2013-03-10 17:49:00,
2013-03-10 13:54:00,61.5,25.3,30.27,ESE,119,6.0,8.0,25,0.00,,,0.00,meteohub,2013-03-10 17:54:00,
2013-03-10 13:59:00,61.7,25.5,30.24,South,179,8.0,8.0,25,0.00,,,0.00,meteohub,2013-03-10 17:59:00,
2013-03-10 14:04:00,61.7,25.5,30.24,SSE,168,9.0,11.0,25,0.00,,,0.00,meteohub,2013-03-10 18:04:00,
2013-03-10 14:09:00,61.9,25.7,30.24,SSW,211,5.0,11.0,25,0.00,,,0.00,meteohub,2013-03-10 18:09:00,
2013-03-10 14:14:00,61.7,25.5,30.24,SW,215,3.0,10.0,25,0.00,,,0.00,meteohub,2013-03-10 18:14:00,
2013-03-10 14:19:00,61.9,25.7,30.24,North,5,3.0,9.0,25,0.00,,,0.00,meteohub,2013-03-10 18:19:00,
2013-03-10 14:24:00,62.2,26.1,30.24,West,267,2.0,9.0,25,0.00,,,0.00,meteohub,2013-03-10 18:24:00,
2013-03-10 14:29:00,62.2,26.1,30.24,SSW,200,9.0,9.0,25,0.00,,,0.00,meteohub,2013-03-10 18:29:00,
2013-03-10 14:34:00,62.4,26.1,30.24,SSE,168,6.0,11.0,25,0.00,,,0.00,meteohub,2013-03-10 18:34:00,
2013-03-10 14:39:00,62.6,25.3,30.24,South,175,0.0,11.0,24,0.00,,,0.00,meteohub,2013-03-10 18:39:00,
2013-03-10 14:44:00,62.4,26.1,30.21,WSW,254,4.0,11.0,25,0.00,,,0.00,meteohub,2013-03-10 18:44:00,
2013-03-10 14:49:00,62.2,26.1,30.21,SSW,196,3.0,8.0,25,0.00,,,0.00,meteohub,2013-03-10 18:49:00,
2013-03-10 14:54:00,62.1,25.9,30.21,WSW,238,4.0,8.0,25,0.00,,,0.00,meteohub,2013-03-10 18:54:00,
2013-03-10 14:59:00,62.2,26.1,30.21,WSW,258,4.0,9.0,25,0.00,,,0.00,meteohub,2013-03-10 18:59:00,
2013-03-10 15:04:00,63.0,25.5,30.21,SSW,213,8.0,9.0,24,0.00,,,0.00,meteohub,2013-03-10 19:04:00,
2013-03-10 15:09:00,63.3,25.9,30.21,SW,233,4.0,9.0,24,0.00,,,0.00,meteohub,2013-03-10 19:09:00,
2013-03-10 15:14:00,63.0,25.5,30.21,SSW,208,4.0,10.0,24,0.00,,,0.00,meteohub,2013-03-10 19:14:00,
2013-03-10 15:19:00,62.8,25.5,30.21,WSW,239,4.0,10.0,24,0.00,,,0.00,meteohub,2013-03-10 19:19:00,
2013-03-10 15:24:00,62.8,25.5,30.21,South,187,3.0,10.0,24,0.00,,,0.00,meteohub,2013-03-10 19:24:00,
2013-03-10 15:29:00,63.1,25.7,30.21,South,185,5.0,5.0,24,0.00,,,0.00,meteohub,2013-03-10 19:29:00,
2013-03-10 15:34:00,63.1,25.7,30.21,WSW,238,3.0,8.0,24,0.00,,,0.00,meteohub,2013-03-10 19:34:00,
2013-03-10 15:39:00,63.1,25.7,30.21,SW,225,5.0,8.0,24,0.00,,,0.00,meteohub,2013-03-10 19:39:00,
2013-03-10 15:44:00,63.1,25.7,30.21,SW,220,3.0,8.0,24,0.00,,,0.00,meteohub,2013-03-10 19:44:00,
2013-03-10 15:49:00,63.1,25.7,30.21,SE,146,4.0,8.0,24,0.00,,,0.00,meteohub,2013-03-10 19:49:00,
2013-03-10 15:54:00,63.0,25.5,30.21,NNE,27,0.0,8.0,24,0.00,,,0.00,meteohub,2013-03-10 19:54:00,
2013-03-10 15:59:00,63.1,25.7,30.21,SW,224,3.0,8.0,24,0.00,,,0.00,meteohub,2013-03-10 19:59:00,
2013-03-10 16:04:00,63.5,26.1,30.21,West,276,5.0,5.0,24,0.00,,,0.00,meteohub,2013-03-10 20:04:00,
2013-03-10 16:09:00,63.5,26.1,30.21,WNW,297,3.0,5.0,24,0.00,,,0.00,meteohub,2013-03-10 20:09:00,
2013-03-10 16:14:00,63.5,26.1,30.21,South,191,2.0,6.0,24,0.00,,,0.00,meteohub,2013-03-10 20:14:00,
2013-03-10 16:19:00,63.5,26.1,30.21,WSW,237,3.0,9.0,24,0.00,,,0.00,meteohub,2013-03-10 20:19:00,
2013-03-10 16:24:00,63.5,26.1,30.21,WSW,239,4.0,9.0,24,0.00,,,0.00,meteohub,2013-03-10 20:24:00,
2013-03-10 16:29:00,63.5,26.1,30.21,WNW,302,3.0,9.0,24,0.00,,,0.00,meteohub,2013-03-10 20:29:00,
2013-03-10 16:34:00,63.5,26.1,30.21,West,269,4.0,6.0,24,0.00,,,0.00,meteohub,2013-03-10 20:34:00,
2013-03-10 16:39:00,63.5,26.1,30.21,SW,214,3.0,6.0,24,0.00,,,0.00,meteohub,2013-03-10 20:39:00,
2013-03-10 16:45:00,63.7,26.2,30.21,SSW,213,9.0,9.0,24,0.00,,,0.00,meteohub,2013-03-10 20:45:00,
2013-03-10 16:50:00,64.0,26.6,30.21,South,174,4.0,8.0,24,0.00,,,0.00,meteohub,2013-03-10 20:50:00,
2013-03-10 16:55:00,63.9,26.4,30.21,SW,219,4.0,10.0,24,0.00,,,0.00,meteohub,2013-03-10 20:55:00,
2013-03-10 17:00:00,63.7,26.2,30.21,WSW,251,3.0,10.0,24,0.00,,,0.00,meteohub,2013-03-10 21:00:00,
2013-03-10 17:05:00,63.3,25.9,30.21,SSW,200,0.0,8.0,24,0.00,,,0.00,meteohub,2013-03-10 21:05:00,
2013-03-10 17:10:00,63.3,25.9,30.21,SSW,192,6.0,6.0,24,0.00,,,0.00,meteohub,2013-03-10 21:10:00,
2013-03-10 17:15:00,63.5,26.1,30.18,SSW,206,3.0,8.0,24,0.00,,,0.00,meteohub,2013-03-10 21:15:00,
2013-03-10 17:20:00,63.3,25.9,30.18,SW,219,3.0,8.0,24,0.00,,,0.00,meteohub,2013-03-10 21:20:00,
2013-03-10 17:25:00,63.1,25.7,30.18,SW,227,4.0,8.0,24,0.00,,,0.00,meteohub,2013-03-10 21:25:00,
2013-03-10 17:30:00,62.8,25.5,30.18,SW,220,3.0,8.0,24,0.00,,,0.00,meteohub,2013-03-10 21:30:00,
2013-03-10 17:35:00,62.2,25.0,30.18,WSW,245,3.0,8.0,24,0.00,,,0.00,meteohub,2013-03-10 21:35:00,
2013-03-10 17:40:00,62.1,24.8,30.18,SSW,204,4.0,6.0,24,0.00,,,0.00,meteohub,2013-03-10 21:40:00,
2013-03-10 17:45:00,61.9,24.6,30.18,West,266,4.0,6.0,24,0.00,,,0.00,meteohub,2013-03-10 21:45:00,
2013-03-10 17:50:00,61.7,25.5,30.18,SSW,212,4.0,6.0,25,0.00,,,0.00,meteohub,2013-03-10 21:50:00,
2013-03-10 17:55:00,61.7,25.5,30.18,SW,233,3.0,6.0,25,0.00,,,0.00,meteohub,2013-03-10 21:55:00,
2013-03-10 18:00:00,61.5,25.3,30.18,WSW,244,3.0,7.0,25,0.00,,,0.00,meteohub,2013-03-10 22:00:00,
2013-03-10 18:05:00,61.3,25.2,30.18,SW,221,3.0,7.0,25,0.00,,,0.00,meteohub,2013-03-10 22:05:00,
2013-03-10 18:10:00,61.3,25.2,30.18,WSW,244,0.0,5.0,25,0.00,,,0.00,meteohub,2013-03-10 22:10:00,
2013-03-10 18:15:00,61.5,25.3,30.18,WSW,239,4.0,6.0,25,0.00,,,0.00,meteohub,2013-03-10 22:15:00,
2013-03-10 18:20:00,61.5,25.3,30.18,SW,229,0.0,6.0,25,0.00,,,0.00,meteohub,2013-03-10 22:20:00,
2013-03-10 18:25:00,61.5,25.3,30.18,South,171,4.0,6.0,25,0.00,,,0.00,meteohub,2013-03-10 22:25:00,
2013-03-10 18:30:00,61.5,25.3,30.18,SSW,207,0.0,6.0,25,0.00,,,0.00,meteohub,2013-03-10 22:30:00,
2013-03-10 18:35:00,61.3,25.2,30.18,SW,222,4.0,6.0,25,0.00,,,0.00,meteohub,2013-03-10 22:35:00,
2013-03-10 18:40:00,61.0,25.0,30.18,WSW,252,2.0,6.0,25,0.00,,,0.00,meteohub,2013-03-10 22:40:00,
2013-03-10 18:45:00,60.8,24.8,30.18,SSW,201,0.0,6.0,25,0.00,,,0.00,meteohub,2013-03-10 22:45:00,
2013-03-10 18:50:00,60.4,24.4,30.18,SW,214,0.0,6.0,25,0.00,,,0.00,meteohub,2013-03-10 22:50:00,
2013-03-10 18:55:00,60.4,24.4,30.18,SSW,192,0.0,4.0,25,0.00,,,0.00,meteohub,2013-03-10 22:55:00,
2013-03-10 19:00:00,60.1,24.1,30.18,SSW,192,0.0,4.0,25,0.00,,,0.00,meteohub,2013-03-10 23:00:00,
2013-03-10 19:05:00,60.1,24.1,30.18,SSE,167,0.0,3.0,25,0.00,,,0.00,meteohub,2013-03-10 23:05:00,
2013-03-10 19:10:00,59.9,23.9,30.18,South,169,0.0,3.0,25,0.00,,,0.00,meteohub,2013-03-10 23:10:00,
2013-03-10 19:15:00,59.7,23.9,30.18,South,169,0.0,3.0,25,0.00,,,0.00,meteohub,2013-03-10 23:15:00,
2013-03-10 19:21:00,59.4,23.5,30.18,South,169,0.0,3.0,25,0.00,,,0.00,meteohub,2013-03-10 23:21:00,
2013-03-10 19:26:00,59.2,23.4,30.18,South,169,0.0,3.0,25,0.00,,,0.00,meteohub,2013-03-10 23:26:00,
2013-03-10 19:31:00,59.0,23.2,30.18,South,169,0.0,0.0,25,0.00,,,0.00,meteohub,2013-03-10 23:31:00,
2013-03-10 19:36:00,58.5,23.7,30.18,South,169,0.0,0.0,26,0.00,,,0.00,meteohub,2013-03-10 23:36:00,
2013-03-10 19:41:00,58.1,23.4,30.18,South,169,0.0,0.0,26,0.00,,,0.00,meteohub,2013-03-10 23:41:00,
2013-03-10 19:46:00,57.9,23.2,30.21,South,169,0.0,0.0,26,0.00,,,0.00,meteohub,2013-03-10 23:46:00,
2013-03-10 19:52:00,57.6,23.9,30.21,South,169,0.0,0.0,27,0.00,,,0.00,meteohub,2013-03-10 23:52:00,
2013-03-10 19:57:00,57.4,23.7,30.21,South,169,0.0,0.0,27,0.00,,,0.00,meteohub,2013-03-10 23:57:00,
2013-03-10 20:02:00,57.2,24.4,30.21,South,169,0.0,0.0,28,0.00,,,0.00,meteohub,2013-03-11 00:02:00,
2013-03-10 20:07:00,57.2,24.4,30.21,South,169,0.0,0.0,28,0.00,,,0.00,meteohub,2013-03-11 00:07:00,
2013-03-10 20:12:00,56.8,25.0,30.21,South,169,0.0,0.0,29,0.00,,,0.00,meteohub,2013-03-11 00:12:00,
2013-03-10 20:17:00,56.5,25.3,30.21,South,169,0.0,0.0,30,0.00,,,0.00,meteohub,2013-03-11 00:17:00,
2013-03-10 20:22:00,56.3,26.1,30.21,South,169,0.0,0.0,31,0.00,,,0.00,meteohub,2013-03-11 00:22:00,
2013-03-10 20:27:00,55.9,26.4,30.21,South,169,0.0,0.0,32,0.00,,,0.00,meteohub,2013-03-11 00:27:00,
2013-03-10 20:32:00,55.9,27.3,30.21,South,169,0.0,0.0,33,0.00,,,0.00,meteohub,2013-03-11 00:32:00,
2013-03-10 20:37:00,55.6,27.0,30.21,South,169,0.0,0.0,33,0.00,,,0.00,meteohub,2013-03-11 00:37:00,
2013-03-10 20:42:00,55.4,27.5,30.21,South,169,0.0,0.0,34,0.00,,,0.00,meteohub,2013-03-11 00:42:00,
2013-03-10 20:47:00,55.0,27.9,30.18,South,169,0.0,0.0,35,0.00,,,0.00,meteohub,2013-03-11 00:47:00,
2013-03-10 20:52:00,55.0,28.6,30.18,South,169,0.0,0.0,36,0.00,,,0.00,meteohub,2013-03-11 00:52:00,
2013-03-10 20:58:00,55.2,28.0,30.18,South,169,0.0,0.0,35,0.00,,,0.00,meteohub,2013-03-11 00:58:00,
2013-03-10 21:03:00,55.0,27.9,30.21,South,169,0.0,0.0,35,0.00,,,0.00,meteohub,2013-03-11 01:03:00,
2013-03-10 21:08:00,55.0,27.9,30.21,South,169,0.0,0.0,35,0.00,,,0.00,meteohub,2013-03-11 01:08:00,
2013-03-10 21:13:00,55.0,27.9,30.21,South,169,0.0,0.0,35,0.00,,,0.00,meteohub,2013-03-11 01:13:00,
2013-03-10 21:18:00,54.9,27.7,30.21,South,169,0.0,0.0,35,0.00,,,0.00,meteohub,2013-03-11 01:18:00,
2013-03-10 21:23:00,54.5,28.0,30.21,South,169,0.0,0.0,36,0.00,,,0.00,meteohub,2013-03-11 01:23:00,
2013-03-10 21:28:00,54.5,28.0,30.21,South,169,0.0,0.0,36,0.00,,,0.00,meteohub,2013-03-11 01:28:00,
2013-03-10 21:33:00,54.3,27.9,30.21,South,169,0.0,0.0,36,0.00,,,0.00,meteohub,2013-03-11 01:33:00,
2013-03-10 21:38:00,54.0,27.7,30.21,South,169,0.0,0.0,36,0.00,,,0.00,meteohub,2013-03-11 01:38:00,
2013-03-10 21:43:00,53.6,28.0,30.21,South,169,0.0,0.0,37,0.00,,,0.00,meteohub,2013-03-11 01:43:00,
2013-03-10 21:48:00,53.4,27.9,30.21,South,169,0.0,0.0,37,0.00,,,0.00,meteohub,2013-03-11 01:48:00,
2013-03-10 21:53:00,53.2,28.2,30.21,South,169,0.0,0.0,38,0.00,,,0.00,meteohub,2013-03-11 01:53:00,
2013-03-10 21:58:00,53.1,28.0,30.21,South,169,0.0,0.0,38,0.00,,,0.00,meteohub,2013-03-11 01:58:00,
2013-03-10 22:03:00,52.9,28.0,30.21,South,169,0.0,0.0,38,0.00,,,0.00,meteohub,2013-03-11 02:03:00,
2013-03-10 22:08:00,52.5,27.7,30.21,South,169,0.0,0.0,38,0.00,,,0.00,meteohub,2013-03-11 02:08:00,
2013-03-10 22:13:00,52.3,28.0,30.21,South,169,0.0,0.0,39,0.00,,,0.00,meteohub,2013-03-11 02:13:00,
2013-03-10 22:18:00,52.2,27.9,30.21,South,169,0.0,0.0,39,0.00,,,0.00,meteohub,2013-03-11 02:18:00,
2013-03-10 22:23:00,52.2,28.6,30.21,South,169,0.0,0.0,40,0.00,,,0.00,meteohub,2013-03-11 02:23:00,
2013-03-10 22:28:00,52.0,27.9,30.21,South,169,0.0,0.0,39,0.00,,,0.00,meteohub,2013-03-11 02:28:00,
2013-03-10 22:33:00,51.8,28.2,30.21,South,169,0.0,0.0,40,0.00,,,0.00,meteohub,2013-03-11 02:33:00,
2013-03-10 22:38:00,51.8,28.2,30.21,South,169,0.0,0.0,40,0.00,,,0.00,meteohub,2013-03-11 02:38:00,
2013-03-10 22:43:00,51.8,28.2,30.21,South,169,0.0,0.0,40,0.00,,,0.00,meteohub,2013-03-11 02:43:00,
2013-03-10 22:48:00,51.6,28.0,30.21,South,169,0.0,0.0,40,0.00,,,0.00,meteohub,2013-03-11 02:48:00,
2013-03-10 22:53:00,51.4,27.9,30.21,South,169,0.0,0.0,40,0.00,,,0.00,meteohub,2013-03-11 02:53:00,
2013-03-10 22:58:00,51.1,28.2,30.21,South,169,0.0,0.0,41,0.00,,,0.00,meteohub,2013-03-11 02:58:00,
2013-03-10 23:03:00,50.9,28.0,30.21,South,169,0.0,0.0,41,0.00,,,0.00,meteohub,2013-03-11 03:03:00,
2013-03-10 23:08:00,50.7,28.4,30.21,South,169,0.0,0.0,42,0.00,,,0.00,meteohub,2013-03-11 03:08:00,
2013-03-10 23:13:00,50.5,28.2,30.21,South,169,0.0,0.0,42,0.00,,,0.00,meteohub,2013-03-11 03:13:00,
2013-03-10 23:18:00,50.4,28.8,30.21,South,169,0.0,0.0,43,0.00,,,0.00,meteohub,2013-03-11 03:18:00,
2013-03-10 23:23:00,50.2,28.6,30.21,South,169,0.0,0.0,43,0.00,,,0.00,meteohub,2013-03-11 03:23:00,
2013-03-10 23:28:00,50.2,28.0,30.21,South,169,0.0,0.0,42,0.00,,,0.00,meteohub,2013-03-11 03:28:00,
2013-03-10 23:33:00,50.2,28.0,30.21,South,169,0.0,0.0,42,0.00,,,0.00,meteohub,2013-03-11 03:33:00,
2013-03-10 23:38:00,50.0,28.4,30.21,South,169,0.0,0.0,43,0.00,,,0.00,meteohub,2013-03-11 03:38:00,
2013-03-10 23:43:00,49.6,28.6,30.21,South,169,0.0,0.0,44,0.00,,,0.00,meteohub,2013-03-11 03:43:00,
2013-03-10 23:48:00,49.5,29.5,30.21,South,169,0.0,0.0,46,0.00,,,0.00,meteohub,2013-03-11 03:48:00,
2013-03-10 23:53:00,49.5,30.0,30.21,South,169,0.0,0.0,47,0.00,,,0.00,meteohub,2013-03-11 03:53:00,
2013-03-10 23:58:00,49.6,29.7,30.21,South,169,0.0,0.0,46,0.00,,,0.00,meteohub,2013-03-11 03:58:00,